Home   Weather   Funafuti   Past weeks

Flag for Tuvalu Past Weather in Funafuti, Tuvalu — Yesterday and Last 2 Weeks

Now
84 °F

Passing clouds.


Feels Like: 94 °F
Forecast: 82 / 88 °F
Wind: 8 mph from East

Location: Funafuti

Current Time: Jul 28, 2017 at 8:59:06 pm

Latest Report: Jul 28, 2017 at 8:00 pm


Visibility: N/A

Pressure: 29.83 "Hg

Humidity: 79%

Dew Point: 77 °F

Location of FunafutiLocation

Past Weather in Funafuti — Graph

°F

Funafuti Temperature Yesterday

Maximum temperature yesterday: 90 °F (at 11:00 am)
Minimum temperature yesterday: 79 °F (at 2:00 am)
Average temperature yesterday: 84 °F

High & Low Weather Summary for the Past Weeks

 TemperatureHumidityPressure
High91 °F (Jul 21, 1:00 pm)100% (Jul 14, 10:00 pm)29.89 "Hg (Jul 14, 10:00 pm)
Low66 °F (Jul 18, 10:00 pm)63% (Jul 19, 12:00 pm)29.71 "Hg (Jul 20, 4:00 pm)
Average85 °F78%29.81 "Hg
* Reported Jul 13 7:00 pm — Jul 28 7:00 pm, Funafuti. Weather by CustomWeather, © 2017

Note: Actual official high and low records may vary slightly from our data, if they occured in-between our weather recording intervals... More about our weather records

Advertising

Funafuti Weather History for the Previous 24 Hours

Scroll right to see more
 ConditionsComfort  
Time TempWeatherWind HumidityBarometerVisibility
7:00 pm
Fri, Jul 28
84 °FPassing clouds.7 mph79%29.83 "HgN/A
6:00 pm86 °FPassing clouds.10 mph75%29.80 "HgN/A
5:00 pm86 °FPassing clouds.12 mph75%29.80 "HgN/A
4:00 pm88 °FPassing clouds.10 mph75%29.77 "HgN/A
3:00 pm90 °FPassing clouds.9 mph71%29.77 "HgN/A
2:00 pm90 °FPassing clouds.12 mph71%29.80 "HgN/A
1:00 pm90 °FPassing clouds.12 mph71%29.80 "HgN/A
12:00 pm90 °FPassing clouds.12 mph67%29.83 "HgN/A
11:00 am90 °FPassing clouds.13 mph67%29.86 "HgN/A
10:00 am88 °FPassing clouds.12 mph70%29.86 "HgN/A
9:00 am88 °FPassing clouds.12 mph70%29.86 "HgN/A
8:00 am86 °FPassing clouds.9 mph70%29.86 "HgN/A
7:00 am84 °FPassing clouds.13 mph74%29.83 "HgN/A
6:00 am84 °FPassing clouds.17 mph74%29.83 "HgN/A
5:00 am82 °FPassing clouds.15 mph84%29.80 "HgN/A
4:00 am84 °FPassing clouds.14 mph79%29.80 "HgN/A
3:00 am84 °FPassing clouds.7 mph79%29.80 "HgN/A
2:00 am82 °FPassing clouds.5 mph84%29.80 "HgN/A
1:00 am84 °FPassing clouds.2 mph79%29.83 "HgN/A
12:00 am84 °FPassing clouds.9 mph79%29.83 "HgN/A
11:00 pm
Thu, Jul 27
84 °FPassing clouds.7 mph79%29.83 "HgN/A
10:00 pm84 °FPassing clouds.12 mph79%29.83 "HgN/A
9:00 pm84 °FPassing clouds.58 mph79%29.83 "HgN/A
8:00 pm84 °FPassing clouds.10 mph79%29.83 "HgN/A
Weather by CustomWeather, © 2017

See weather overviewHow to use our weather pages